�N����,����,�~����,�C��,���x,�C��,����,���ϕ���,�ő�u�ԕ���,�ő厞����,���˗�,�I�_���x,�n�����x,�ő啗���N��,DTYPE
"20/04/13","00:10",0.0,9.6,96.1,994.1,294.6,1.7,2.5,326.5,0.00,9.0,11.4,"00:01:44",1
"20/04/13","00:20",0.0,9.7,96.1,993.9,264.2,1.2,2.7,308.9,0.00,9.1,11.3,"00:13:30",1
"20/04/13","00:30",0.0,9.8,96.1,993.4,312.7,1.5,2.8,299.6,0.00,9.2,11.4,"00:24:50",1
"20/04/13","00:40",0.0,9.8,96.1,993.4,294.1,1.8,2.9,302.2,0.00,9.2,11.4,"00:38:24",1
"20/04/13","00:50",0.0,9.9,96.2,993.0,269.3,1.3,2.2,240.2,0.00,9.4,11.3,"00:47:44",1
"20/04/13","01:00",0.0,9.9,96.2,993.0,290.7,1.3,2.2,291.2,0.00,9.4,11.5,"00:57:44",1
"20/04/13","01:10",0.0,9.9,96.2,992.2,311.0,2.1,4.0,314.6,0.00,9.4,11.4,"01:04:48",1
"20/04/13","01:20",0.0,10.0,96.3,992.0,323.4,1.8,3.2,334.1,0.00,9.5,11.4,"01:17:40",1
"20/04/13","01:30",0.0,10.2,96.2,992.2,288.9,1.3,2.9,307.8,0.00,9.7,11.6,"01:23:04",1
"20/04/13","01:40",0.0,10.2,96.1,992.0,311.5,2.0,3.6,333.8,0.00,9.6,11.3,"01:33:28",1
"20/04/13","01:50",0.2,10.2,96.0,991.5,329.6,1.8,3.4,336.5,0.00,9.6,11.5,"01:40:58",1
"20/04/13","02:00",0.0,10.2,96.0,991.1,309.4,1.3,3.2,328.1,0.00,9.6,11.4,"01:56:36",1
"20/04/13","02:10",0.0,10.2,96.0,990.6,325.9,2.0,4.1,322.3,0.00,9.6,11.3,"02:09:52",1
"20/04/13","02:20",0.0,10.3,95.7,990.4,325.0,2.8,5.2,333.1,0.00,9.7,11.3,"02:16:18",1
"20/04/13","02:30",0.0,10.3,95.5,990.6,310.8,2.7,5.1,339.6,0.00,9.7,11.2,"02:29:52",1
"20/04/13","02:40",0.0,10.1,95.3,990.8,288.1,2.1,4.5,321.8,0.00,9.4,11.4,"02:30:56",1
"20/04/13","02:50",0.0,9.7,95.4,990.6,283.4,2.3,4.9,305.8,0.00,9.0,11.3,"02:45:12",1
"20/04/13","03:00",0.0,9.6,95.4,990.1,302.4,2.5,4.9,329.7,0.00,8.9,11.6,"02:55:28",1
"20/04/13","03:10",0.0,9.5,95.4,990.4,287.0,1.7,2.8,299.1,0.00,8.8,11.5,"03:00:08",1
"20/04/13","03:20",0.2,9.5,95.4,989.6,303.2,2.0,4.2,332.2,0.00,8.8,11.4,"03:18:40",1
"20/04/13","03:30",0.0,9.4,95.5,989.2,302.6,2.0,3.3,324.6,0.00,8.8,11.3,"03:29:20",1
"20/04/13","03:40",0.0,9.4,95.5,988.7,328.0,2.5,4.0,337.2,0.00,8.8,11.6,"03:39:44",1
"20/04/13","03:50",0.0,9.3,95.4,988.5,332.5,2.8,5.2,350.8,0.00,8.6,11.3,"03:47:46",1
"20/04/13","04:00",0.0,9.2,95.4,987.5,334.5,3.2,7.4,349.7,0.00,8.5,11.4,"03:59:48",1
"20/04/13","04:10",0.2,9.2,95.2,988.0,338.3,3.6,9.3,346.2,0.00,8.5,11.5,"04:03:24",1
"20/04/13","04:20",0.4,9.2,95.2,988.5,329.0,2.7,5.1,311.0,0.00,8.5,11.5,"04:13:24",1
"20/04/13","04:30",0.6,9.3,95.2,988.5,267.4,1.1,2.5,345.6,0.00,8.6,11.3,"04:20:08",1
"20/04/13","04:40",0.6,9.3,95.2,988.5,326.4,2.3,4.9,330.3,0.00,8.6,11.5,"04:39:20",1
"20/04/13","04:50",1.0,9.2,95.2,988.7,324.5,2.7,5.7,333.1,0.00,8.5,11.4,"04:42:44",1
"20/04/13","05:00",0.8,9.0,95.3,988.9,321.9,2.7,4.4,333.4,0.00,8.3,11.2,"04:55:36",1
"20/04/13","05:10",0.8,8.9,95.4,988.2,327.6,2.6,3.9,342.0,0.00,8.2,11.2,"05:09:42",1
"20/04/13","05:20",0.6,8.8,95.4,988.0,324.5,3.2,4.4,335.5,0.00,8.1,11.4,"05:11:48",1
"20/04/13","05:30",0.2,8.8,95.5,988.0,335.9,3.1,4.4,319.6,0.00,8.2,11.2,"05:23:32",1
"20/04/13","05:40",0.0,8.8,95.4,988.0,331.9,3.7,7.5,342.6,0.00,8.1,11.3,"05:35:44",1
"20/04/13","05:50",0.4,8.9,95.4,988.2,325.8,3.4,5.5,335.6,0.00,8.2,11.2,"05:45:36",1
"20/04/13","06:00",0.4,8.8,95.4,987.8,303.1,2.6,5.6,313.2,0.00,8.1,11.2,"05:55:52",1
"20/04/13","06:10",0.4,8.8,95.5,988.0,303.1,2.7,4.5,316.4,0.00,8.2,11.1,"06:04:38",1
"20/04/13","06:20",0.4,8.9,95.4,987.8,272.5,1.5,3.3,305.0,0.00,8.2,11.1,"06:18:02",1
"20/04/13","06:30",0.6,8.9,95.5,988.0,324.8,2.2,3.7,337.6,0.00,8.3,11.2,"06:29:52",1
"20/04/13","06:40",1.0,8.8,95.6,987.0,333.9,2.7,4.3,314.8,0.00,8.2,11.1,"06:34:18",1
"20/04/13","06:50",1.2,9.0,95.7,986.1,340.2,2.3,5.1,351.7,0.00,8.4,11.0,"06:47:18",1
"20/04/13","07:00",0.4,9.4,95.7,986.3,281.3,2.0,3.5,341.2,0.00,8.8,10.9,"06:59:36",1
"20/04/13","07:10",0.0,9.4,95.6,986.3,325.7,2.6,5.2,328.5,0.00,8.8,10.9,"07:03:46",1
"20/04/13","07:20",0.0,9.4,95.7,986.3,314.3,2.0,3.2,330.1,0.00,8.8,10.9,"07:11:12",1
"20/04/13","07:30",0.0,9.7,95.7,985.9,284.0,1.2,2.4,318.5,0.00,9.1,10.8,"07:29:28",1
"20/04/13","07:40",0.0,10.0,95.6,985.9,307.8,2.5,4.3,312.6,0.00,9.4,11.1,"07:35:28",1
"20/04/13","07:50",0.0,10.1,95.5,986.3,286.1,1.6,2.7,312.3,0.00,9.5,11.1,"07:40:18",1
"20/04/13","08:00",0.0,10.1,95.7,985.9,287.9,2.0,3.3,268.0,0.00,9.5,10.7,"07:51:38",1
"20/04/13","08:10",0.0,10.6,95.6,986.3,298.0,2.0,3.1,323.0,0.01,10.0,10.9,"08:04:06",1
"20/04/13","08:20",0.0,10.9,95.5,986.3,285.2,1.5,2.4,294.0,0.02,10.2,11.0,"08:10:42",1
"20/04/13","08:30",0.0,11.1,95.4,986.1,251.1,1.7,4.1,336.9,0.06,10.4,11.1,"08:21:14",1
"20/04/13","08:40",0.0,11.4,95.4,986.3,249.7,1.8,3.9,239.7,0.03,10.7,11.2,"08:30:56",1
"20/04/13","08:50",0.0,11.4,95.4,986.3,284.8,1.8,4.0,304.5,0.03,10.7,11.2,"08:43:44",1
"20/04/13","09:00",0.0,11.6,95.3,985.9,298.0,1.7,2.6,328.6,0.05,10.9,11.3,"08:55:36",1
"20/04/13","09:10",0.0,12.1,95.3,985.6,287.0,1.1,2.6,282.0,0.09,11.4,11.4,"09:03:28",1
"20/04/13","09:20",0.0,12.2,95.0,985.9,348.0,1.5,2.4,339.3,0.08,11.5,11.3,"09:18:56",1
"20/04/13","09:30",0.0,12.4,94.9,986.1,351.3,1.1,3.3,340.7,0.07,11.6,11.4,"09:20:24",1
"20/04/13","09:40",0.0,12.4,94.5,985.6,293.8,1.1,2.8,115.3,0.05,11.6,11.5,"09:39:52",1
"20/04/13","09:50",0.0,12.3,93.9,985.6,130.1,1.7,3.9,122.2,0.02,11.4,11.6,"09:43:52",1
"20/04/13","10:00",0.0,12.3,93.2,986.1,142.2,1.8,4.1,110.0,0.01,11.3,11.4,"09:51:04",1
"20/04/13","10:10",0.2,12.1,92.9,986.3,197.6,2.1,4.3,188.5,0.02,11.0,11.4,"10:08:04",1
"20/04/13","10:20",0.0,11.6,93.2,986.6,207.6,2.6,5.4,219.5,0.03,10.6,11.4,"10:19:08",1
"20/04/13","10:30",0.0,11.5,93.4,986.8,215.4,1.8,3.4,202.1,0.05,10.5,11.6,"10:25:44",1
"20/04/13","10:40",0.2,11.4,93.5,986.8,188.5,2.0,3.6,163.2,0.09,10.4,11.8,"10:35:20",1
"20/04/13","10:50",0.0,11.3,93.6,987.0,150.4,1.8,4.0,135.2,0.08,10.3,11.6,"10:45:20",1
"20/04/13","11:00",0.0,11.1,93.9,987.0,157.1,2.1,3.9,157.2,0.06,10.2,11.7,"10:56:48",1
"20/04/13","11:10",0.2,10.8,94.2,987.0,160.3,2.6,5.0,147.3,0.05,9.9,11.8,"11:05:34",1
"20/04/13","11:20",0.2,10.5,94.5,987.3,170.3,2.7,4.3,147.5,0.05,9.7,11.7,"11:14:04",1
"20/04/13","11:30",0.4,10.5,94.8,987.5,165.3,2.8,4.8,176.1,0.05,9.7,11.6,"11:20:40",1
"20/04/13","11:40",0.2,10.4,95.1,987.3,181.3,2.3,4.3,143.6,0.06,9.7,11.7,"11:31:52",1
"20/04/13","11:50",0.2,10.4,95.2,987.3,176.4,2.6,5.2,165.5,0.06,9.7,11.8,"11:48:54",1
"20/04/13","12:00",0.0,10.6,95.4,987.0,166.6,1.8,3.1,126.5,0.07,9.9,11.7,"11:59:30",1
"20/04/13","12:10",0.2,10.6,95.6,987.0,161.6,2.0,5.5,197.4,0.05,10.0,11.6,"12:05:38",1
"20/04/13","12:20",0.0,10.6,95.7,987.0,166.9,2.0,3.9,160.7,0.06,10.0,11.8,"12:12:32",1
"20/04/13","12:30",0.0,10.7,95.7,987.0,184.0,1.5,2.9,147.4,0.04,10.1,11.9,"12:27:20",1
"20/04/13","12:40",0.0,10.8,96.0,987.0,174.4,1.5,2.6,183.1,0.08,10.2,11.9,"12:36:56",1
"20/04/13","12:50",0.0,10.7,95.3,987.3,184.0,1.5,4.1,209.4,0.07,10.0,11.7,"12:48:58",1
"20/04/13","13:00",0.0,10.8,95.8,987.5,189.3,1.6,4.1,212.3,0.08,10.2,11.9,"12:50:32",1
"20/04/13","13:10",0.0,10.7,95.6,987.3,168.1,2.2,4.1,141.2,0.08,10.1,11.7,"13:06:40",1
"20/04/13","13:20",0.0,10.8,95.6,987.5,194.9,2.2,3.9,190.4,0.10,10.2,11.9,"13:14:48",1
"20/04/13","13:30",0.0,10.8,95.7,987.5,182.1,1.6,3.4,151.4,0.09,10.2,11.9,"13:22:16",1
"20/04/13","13:40",0.0,10.9,95.3,987.0,198.8,1.7,3.3,205.2,0.09,10.2,11.7,"13:33:44",1
"20/04/13","13:50",0.0,10.7,95.3,987.3,169.3,2.1,4.3,141.9,0.08,10.0,12.1,"13:42:56",1
"20/04/13","14:00",0.4,10.7,95.2,987.3,163.8,2.1,3.4,156.2,0.07,10.0,11.9,"13:51:52",1
"20/04/13","14:10",0.2,10.7,95.3,987.5,184.7,2.0,3.6,130.7,0.06,10.0,12.0,"14:04:00",1
"20/04/13","14:20",0.4,10.6,95.2,987.3,196.1,1.7,3.9,214.2,0.07,9.9,11.9,"14:18:56",1
"20/04/13","14:30",0.0,10.6,95.2,987.0,179.7,2.0,3.3,171.3,0.06,9.9,11.8,"14:23:52",1
"20/04/13","14:40",0.4,10.5,95.1,987.5,175.8,2.0,3.5,127.5,0.06,9.8,12.1,"14:36:16",1
"20/04/13","14:50",0.0,10.4,95.2,987.5,175.0,2.0,4.0,168.1,0.05,9.7,11.9,"14:46:58",1
"20/04/13","15:00",0.4,10.4,95.1,987.5,164.2,1.8,3.4,159.8,0.05,9.7,11.9,"14:51:04",1
"20/04/13","15:10",0.2,10.4,95.1,987.0,176.9,1.3,4.2,142.2,0.03,9.7,11.9,"15:08:40",1
"20/04/13","15:20",0.2,10.3,95.2,987.5,167.0,1.5,2.9,150.3,0.02,9.6,12.1,"15:17:52",1
"20/04/13","15:30",0.4,10.2,95.2,987.0,164.2,1.7,2.8,178.3,0.03,9.5,11.9,"15:24:48",1
"20/04/13","15:40",0.0,10.2,95.3,987.5,169.1,2.5,4.0,144.2,0.05,9.5,12.0,"15:32:40",1
"20/04/13","15:50",0.4,10.1,95.4,987.0,171.1,2.3,3.9,200.9,0.03,9.4,12.1,"15:40:56",1
"20/04/13","16:00",0.2,10.0,95.4,987.3,164.1,2.5,4.7,184.9,0.02,9.3,12.1,"15:52:26",1
"20/04/13","16:10",0.2,9.9,95.4,987.3,174.8,2.0,4.4,158.4,0.02,9.2,11.9,"16:08:48",1
"20/04/13","16:20",0.2,9.8,95.6,987.0,169.8,2.6,4.3,184.8,0.02,9.2,11.9,"16:11:00",1
"20/04/13","16:30",0.2,9.9,95.8,987.3,169.5,2.1,3.9,161.2,0.03,9.3,11.8,"16:26:56",1
"20/04/13","16:40",0.2,9.9,96.0,987.5,182.8,1.8,3.4,174.7,0.03,9.3,11.8,"16:30:48",1
"20/04/13","16:50",0.0,10.0,96.1,987.3,176.5,1.7,2.9,175.0,0.04,9.4,11.8,"16:43:20",1
"20/04/13","17:00",0.2,9.9,96.1,987.8,176.5,1.6,2.8,169.1,0.02,9.3,11.8,"16:50:48",1
"20/04/13","17:10",0.0,9.8,96.2,987.5,175.8,1.5,3.2,180.1,0.00,9.3,11.7,"17:09:28",1
"20/04/13","17:20",0.2,9.8,96.4,987.5,176.7,1.8,4.1,150.8,0.01,9.3,12.0,"17:10:56",1
"20/04/13","17:30",0.2,9.7,96.4,987.8,140.1,1.1,2.1,98.9,0.00,9.2,11.8,"17:28:08",1
"20/04/13","17:40",0.4,9.6,96.5,988.0,181.3,1.5,2.7,202.6,0.00,9.1,11.6,"17:35:28",1
"20/04/13","17:50",0.4,9.6,96.6,988.0,148.4,1.0,2.6,127.9,0.00,9.1,11.8,"17:44:50",1
"20/04/13","18:00",0.4,9.6,96.7,988.0,161.8,1.0,1.9,139.3,0.00,9.1,11.8,"17:53:12",1
"20/04/13","18:10",0.0,9.6,96.7,988.2,253.5,0.7,1.4,325.6,0.00,9.1,11.7,"18:08:16",1
"20/04/13","18:20",0.2,9.6,96.8,988.0,62.9,0.7,1.8,116.8,0.00,9.2,11.7,"18:16:00",1
"20/04/13","18:30",0.0,9.5,96.9,988.5,27.9,0.5,1.0,39.5,0.00,9.1,11.5,"18:29:44",1
"20/04/13","18:40",0.0,9.6,96.9,988.7,334.5,0.6,1.7,325.3,0.00,9.2,11.7,"18:37:44",1
"20/04/13","18:50",0.0,9.7,96.9,988.7,318.7,0.3,1.3,117.5,0.00,9.3,11.8,"18:40:16",1
"20/04/13","19:00",0.0,9.6,96.9,988.9,259.0,0.5,1.0,257.8,0.00,9.2,11.7,"18:59:44",1
"20/04/13","19:10",0.0,9.6,96.9,989.2,288.5,1.1,2.1,327.4,0.00,9.2,11.5,"19:05:52",1
"20/04/13","19:20",0.0,9.5,97.0,989.4,304.2,1.0,2.0,332.4,0.00,9.1,11.5,"19:11:12",1
"20/04/13","19:30",0.0,9.5,97.0,988.9,313.6,1.1,2.4,332.5,0.00,9.1,11.6,"19:20:32",1
"20/04/13","19:40",0.0,9.4,97.0,989.6,304.9,2.0,3.5,325.9,0.00,9.0,11.7,"19:36:30",1
"20/04/13","19:50",0.2,9.5,97.0,989.9,327.1,2.7,4.3,337.8,0.00,9.1,11.6,"19:41:36",1
"20/04/13","20:00",0.0,9.5,96.8,990.1,305.8,2.8,5.6,335.5,0.00,9.1,11.6,"19:52:36",1
"20/04/13","20:10",0.0,9.4,96.7,990.6,310.3,2.1,5.2,322.3,0.00,8.9,11.7,"20:08:20",1
"20/04/13","20:20",0.0,9.4,96.3,990.6,331.4,3.7,9.6,329.7,0.00,8.9,11.4,"20:18:46",1
"20/04/13","20:30",0.0,9.4,96.0,990.6,324.7,2.6,6.3,316.4,0.00,8.8,11.5,"20:20:08",1
"20/04/13","20:40",0.0,9.4,95.7,991.3,323.6,2.3,5.4,298.8,0.00,8.8,11.6,"20:36:56",1
"20/04/13","20:50",0.0,9.6,95.4,992.0,341.7,1.7,4.2,3.1,0.00,8.9,11.6,"20:45:02",1
"20/04/13","21:00",0.0,9.6,94.9,992.0,339.0,1.5,4.3,339.0,0.00,8.9,11.5,"20:55:54",1
"20/04/13","21:10",0.0,9.7,94.2,992.5,326.5,2.3,6.7,345.3,0.00,8.9,11.7,"21:04:44",1
"20/04/13","21:20",0.0,9.8,93.2,992.5,330.8,2.5,7.0,310.1,0.00,8.8,11.7,"21:11:00",1
"20/04/13","21:30",0.0,9.9,92.3,993.2,310.0,2.3,4.3,333.9,0.00,8.8,11.4,"21:25:10",1
"20/04/13","21:40",0.0,10.0,91.2,993.4,325.1,2.7,5.6,319.0,0.00,8.7,11.5,"21:35:12",1
"20/04/13","21:50",0.0,10.0,90.3,993.2,311.1,2.5,5.0,303.4,0.00,8.5,11.7,"21:48:22",1
"20/04/13","22:00",0.0,10.0,89.4,993.4,307.4,2.6,7.2,12.3,0.00,8.4,11.5,"21:55:36",1
"20/04/13","22:10",0.0,10.0,88.7,993.7,324.8,2.6,4.9,347.9,0.00,8.3,11.6,"22:01:18",1
"20/04/13","22:20",0.0,9.9,88.1,993.4,315.3,2.7,4.1,327.6,0.00,8.1,11.4,"22:10:50",1
"20/04/13","22:30",0.2,10.0,87.6,994.1,320.7,2.1,3.7,318.2,0.00,8.1,11.3,"22:27:56",1
"20/04/13","22:40",0.0,10.0,87.5,993.7,314.1,2.5,4.9,328.8,0.00,8.1,11.4,"22:39:52",1
"20/04/13","22:50",0.0,10.0,87.3,993.9,318.1,2.3,5.1,319.6,0.00,8.0,11.6,"22:40:14",1
"20/04/13","23:00",0.0,9.9,87.4,994.1,310.4,2.7,4.4,333.6,0.00,7.9,11.3,"22:53:50",1
"20/04/13","23:10",0.0,10.0,87.3,994.4,329.4,2.1,4.8,261.5,0.00,8.0,11.3,"23:04:12",1
"20/04/13","23:20",0.0,10.1,87.1,994.6,308.1,1.6,3.5,313.3,0.00,8.1,11.4,"23:11:02",1
"20/04/13","23:30",0.0,10.0,87.2,994.6,170.3,0.6,1.8,268.0,0.00,8.0,11.3,"23:29:56",1
"20/04/13","23:40",0.0,10.0,87.3,994.6,285.0,2.0,3.1,305.9,0.00,8.0,11.1,"23:38:24",1
"20/04/13","23:50",0.0,10.1,87.0,995.3,317.7,2.1,4.9,213.3,0.00,8.1,11.3,"23:42:24",1
"20/04/13","24:00",0.0,10.1,86.8,995.6,326.7,2.6,4.5,341.6,0.00,8.0,11.4,"23:50:32",1
